FW0554 Weather Reports


time (UTC)temp
C
wind
direction
speed
KPH
gust
KPH
rain 1hr
cm
rain 24hr
cm
rain mn
cm
humidity
%
barometer
mb
20260510174235 29 92 3.2 11.3 0.00 0.00 0.00 33 1002.2
20260510173233 28 77 1.6 6.4 0.00 0.00 0.00 34 1002.1
20260510172230 28 125 1.6 6.4 0.00 0.00 0.00 37 1002.3
20260510171711 28 162 3.2 12.9 0.00 0.00 0.00 37 1002.4
20260510170230 28 146 1.6 11.3 0.00 0.00 0.00 36 1002.4
20260510165228 28 264 3.2 8.0 0.00 0.00 0.00 35 1002.5
20260510164714 28 274 0.0 1.6 0.00 0.00 0.00 35 1002.5
20260510163229 28 275 1.6 9.7 0.00 0.00 0.00 39 1002.4
20260510162228 27 58 1.6 6.4 0.00 0.00 0.00 39 1002.5
20260510161228 27 222 1.6 6.4 0.00 0.00 0.00 38 1002.6
20260510160226 27 95 4.8 14.5 0.00 0.00 0.00 40 1002.9
20260510155226 27 69 1.6 6.4 0.00 0.00 0.00 42 1002.7
20260510154227 27 102 3.2 9.7 0.00 0.00 0.00 42 1003.0
20260510153225 27 103 3.2 9.7 0.00 0.00 0.00 47 1002.9
20260510152226 26 97 3.2 9.7 0.00 0.00 0.00 48 1003.1
20260510151714 26 110 3.2 11.3 0.00 0.00 0.00 48 1002.9
20260510150227 26 52 0.0 8.0 0.00 0.00 0.00 50 1002.7
20260510145226 26 345 0.0 8.0 0.00 0.00 0.00 52 1002.9
20260510144227 26 358 0.0 4.8 0.00 0.00 0.00 54 1002.8
20260510143226 25 51 1.6 6.4 0.00 0.00 0.00 56 1002.9
20260510142226 25 53 1.6 6.4 0.00 0.00 0.00 57 1002.9
20260510141226 25 299 1.6 4.8 0.00 0.00 0.00 58 1002.9
20260510140226 25 314 3.2 9.7 0.00 0.00 0.00 57 1003.1
20260510135225 24 351 1.6 9.7 0.00 0.00 0.00 61 1003.1
20260510134225 23 323 3.2 11.3 0.00 0.00 0.00 60 1003.0
20260510133226 23 336 1.6 9.7 0.00 0.00 0.00 63 1003.0
20260510132226 23 309 1.6 6.4 0.00 0.00 0.00 68 1002.9
20260510131227 22 305 0.0 3.2 0.00 0.00 0.00 73 1003.1
20260510130226 22 299 1.6 4.8 0.00 0.00 0.00 75 1002.9
20260510125227 21 292 1.6 4.8 0.00 0.00 0.00 78 1002.5
20260510124233 20 297 0.0 4.8 0.00 0.00 0.00 81 1002.5
20260510123226 19 289 1.6 4.8 0.00 0.00 0.00 88 1002.5
20260510122223 18 292 0.0 0.0 0.00 0.00 0.00 93 1002.4
20260510121222 17 295 0.0 0.0 0.00 0.00 0.00 95 1002.4
20260510120221 17 295 0.0 3.2 0.00 0.00 0.00 95 1002.3
20260510115221 16 295 0.0 4.8 0.00 0.00 0.00 95 1002.2
20260510114222 16 292 0.0 0.0 0.00 0.00 0.00 95 1002.0
20260510113222 16 292 0.0 0.0 0.00 0.00 0.00 95 1001.9
20260510112219 16 292 0.0 0.0 0.00 0.00 0.00 95 1001.8
20260510111217 16 293 0.0 0.0 0.00 0.00 0.00 95 1001.5
20260510110218 15 290 0.0 0.0 0.00 0.00 0.00 95 1001.4
20260510110125 15 290 0.0 0.0 0.00 0.00 0.00 95 1001.2
20260510104213 15 290 0.0 0.0 0.00 0.00 0.00 95 1001.3
20260510103211 15 290 0.0 0.0 0.00 0.00 0.00 95 1001.1
20260510102210 15 290 0.0 0.0 0.00 0.00 0.00 94 1001.0
20260510101643 15 290 0.0 0.0 0.00 0.00 0.00 94 1000.6
20260510100204 15 290 0.0 0.0 0.00 0.00 0.00 94 1000.3
20260510095645 15 290 0.0 0.0 0.00 0.00 0.00 94 1000.3
20260510094503 15 290 0.0 0.0 0.00 0.00 0.00 94 999.8
20260510094438 15 290 0.0 0.0 0.00 0.00 0.00 94 999.8
20260510094352 15 290 0.0 0.0 0.00 0.00 0.00 94 1000.0
20260510092159 15 290 0.0 0.0 0.00 0.00 0.00 94 999.8
20260510091632 15 290 0.0 0.0 0.00 0.00 0.00 94 999.9
20260510090157 15 290 0.0 0.0 0.00 0.00 0.00 94 999.7
20260510085158 15 290 0.0 0.0 0.00 0.00 0.00 94 999.8
20260510084156 15 290 0.0 0.0 0.00 0.00 0.00 94 999.7
20260510083634 15 290 0.0 0.0 0.00 0.00 0.00 94 999.6
20260510082152 15 290 0.0 0.0 0.00 0.00 0.00 94 999.6
20260510081152 15 290 0.0 0.0 0.00 0.00 0.00 94 999.5
20260510080153 15 290 0.0 0.0 0.00 0.00 0.00 94 999.5
20260510075634 15 290 0.0 0.0 0.00 0.00 0.00 94 999.6
20260510074149 15 290 0.0 0.0 0.00 0.00 0.00 94 999.5
20260510073150 15 290 0.0 0.0 0.00 0.00 0.00 93 999.5
20260510072145 15 290 0.0 0.0 0.00 0.00 0.00 93 999.3
20260510071143 15 290 0.0 0.0 0.00 0.00 0.00 93 999.3
20260510070145 15 290 0.0 0.0 0.00 0.00 0.00 93 999.4
20260510065620 15 290 0.0 0.0 0.00 0.00 0.00 93 999.5
20260510064144 15 290 0.0 0.0 0.00 0.00 0.00 93 999.7
20260510063140 15 290 0.0 0.0 0.00 0.00 0.00 93 999.5
20260510062141 16 290 0.0 0.0 0.00 0.00 0.00 93 999.4
20260510061142 16 290 0.0 0.0 0.00 0.00 0.00 93 999.4
20260510060139 16 290 0.0 0.0 0.00 0.00 0.00 93 999.5
20260510055140 16 290 0.0 0.0 0.00 0.00 0.00 93 999.5
20260510054140 16 290 0.0 0.0 0.00 0.00 0.00 93 999.7
20260510053139 16 290 0.0 0.0 0.00 0.00 0.00 93 999.8
20260510052139 16 290 0.0 0.0 0.00 0.00 0.00 93 1000.0
20260510051146 16 290 0.0 0.0 0.00 0.00 0.00 92 1000.2
20260510050137 16 290 0.0 0.0 0.00 0.00 0.00 92 1000.0
20260510050116 16 290 0.0 3.2 0.00 0.00 0.00 92 1000.2
20260510045909 16 290 0.0 3.2 0.00 0.00 0.00 93 999.9
20260510043137 16 289 0.0 0.0 0.00 0.00 0.00 92 1000.0
20260510042136 16 289 0.0 0.0 0.00 0.00 0.00 92 1000.1
20260510041132 16 289 0.0 0.0 0.00 0.00 0.00 92 1000.0
20260510040609 16 289 0.0 0.0 0.00 0.00 0.00 91 1000.0
20260510035132 16 289 0.0 0.0 0.00 0.00 0.00 91 1000.0
20260510034131 16 289 0.0 0.0 0.00 0.00 0.00 91 999.9
20260510033132 16 289 0.0 0.0 0.00 0.00 0.00 91 999.8
20260510032131 16 289 0.0 0.0 0.00 0.00 0.00 90 999.8
20260510031131 16 289 0.0 0.0 0.00 0.00 0.00 90 999.6
20260510030131 16 289 0.0 0.0 0.00 0.00 0.00 90 999.7
20260510025629 17 289 0.0 0.0 0.00 0.00 0.00 89 999.5
20260510024621 17 289 0.0 0.0 0.00 0.00 0.00 89 999.5
20260510023129 17 289 0.0 0.0 0.00 0.00 0.00 88 999.4
20260510022621 17 289 0.0 0.0 0.00 0.00 0.00 88 999.5
20260510021130 17 289 0.0 0.0 0.00 0.00 0.00 87 999.3
20260510020127 17 289 0.0 0.0 0.00 0.00 0.00 87 999.2
20260510015127 18 289 0.0 0.0 0.00 0.00 0.00 86 999.2
20260510014127 18 289 0.0 0.0 0.00 0.00 0.00 85 998.9
20260510013126 18 289 0.0 0.0 0.00 0.00 0.00 85 998.9
20260510012125 18 289 0.0 0.0 0.00 0.00 0.00 84 998.8
20260510011123 19 289 0.0 0.0 0.00 0.00 0.00 83 998.7
20260510010123 19 289 0.0 0.0 0.00 0.00 0.00 81 998.6
20260510005124 20 289 0.0 0.0 0.00 0.00 0.00 80 998.5
20260510004612 20 289 0.0 0.0 0.00 0.00 0.00 79 998.4
20260510004042 20 289 0.0 0.0 0.00 0.00 0.00 78 998.3
20260510002119 21 289 0.0 0.0 0.00 0.00 0.00 77 998.3
20260510001119 21 289 0.0 0.0 0.00 0.00 0.00 75 998.4
20260510000117 21 289 0.0 4.8 0.00 0.00 0.00 74 998.0
20260509235115 21 291 0.0 3.2 0.00 0.00 0.00 73 998.1
20260509234117 22 292 0.0 4.8 0.00 0.00 0.00 72 998.1
20260509233113 22 297 1.6 6.4 0.00 0.00 0.00 71 997.8
20260509232112 22 254 3.2 11.3 0.00 0.00 0.00 70 997.8
20260509231113 22 272 1.6 6.4 0.00 0.00 0.00 70 997.8
20260509230114 22 287 1.6 6.4 0.00 0.00 0.00 69 997.6
20260509225111 22 299 3.2 11.3 0.00 0.00 0.00 69 997.5
20260509224113 23 247 3.2 8.0 0.00 0.00 0.00 68 997.4
20260509223610 23 218 3.2 9.7 0.00 0.00 0.00 68 997.5
20260509222555 23 258 3.2 11.3 0.00 0.00 0.00 68 997.4
20260509221109 23 268 4.8 12.9 0.00 0.00 0.00 67 997.8
20260509220108 23 262 3.2 9.7 0.00 0.00 0.00 68 997.8
20260509215109 23 309 3.2 12.9 0.00 0.00 0.00 67 997.7
20260509214558 23 298 3.2 11.3 0.00 0.00 0.00 66 997.6
20260509213109 23 303 3.2 12.9 0.00 0.00 0.00 66 997.6
20260509212110 23 249 3.2 11.3 0.00 0.00 0.00 66 997.5
20260509211109 23 282 4.8 12.9 0.00 0.00 0.00 66 997.5
20260509210109 23 295 4.8 12.9 0.00 0.00 0.00 66 997.4
20260509205109 23 300 3.2 11.3 0.00 0.00 0.00 67 997.4
20260509204109 22 265 1.6 6.4 0.00 0.00 0.00 68 997.5
20260509203552 22 262 3.2 8.0 0.00 0.00 0.00 68 997.4
20260509202110 22 237 4.8 9.7 0.00 0.00 0.00 68 997.6
20260509201110 22 243 3.2 9.7 0.00 0.00 0.00 67 997.5
20260509200111 22 270 1.6 6.4 0.00 0.00 0.00 67 997.6
20260509195108 22 268 4.8 14.5 0.00 0.00 0.00 69 997.9
20260509194556 22 274 4.8 12.9 0.00 0.00 0.00 68 998.0
20260509193110 22 168 3.2 12.9 0.00 0.00 0.00 67 998.1
20260509192109 22 247 3.2 11.3 0.00 0.00 0.00 67 998.3
20260509191110 22 258 3.2 12.9 0.00 0.00 0.00 66 998.3
20260509190105 23 264 6.4 22.5 0.00 0.00 0.00 62 998.1
20260509190026 24 328 4.8 14.5 0.00 0.00 0.00 59 998.2
20260509184105 25 289 3.2 17.7 0.00 0.00 0.00 56 998.1
20260509183103 24 262 6.4 17.7 0.00 0.00 0.00 58 998.1
20260509182102 25 245 4.8 14.5 0.00 0.00 0.00 58 998.3
20260509181102 23 208 6.4 17.7 0.00 0.00 0.00 57 998.5
20260509180549 23 283 6.4 19.3 0.00 0.00 0.00 56 998.7
20260509175103 23 319 4.8 12.9 0.00 0.00 0.00 54 998.8